Location: Wingville
(42.9917°N, 90.4915°W)
Time: 09:45:57
(UTC+00:00)

YUBILEINY - Pass Details

Date: 07 July 2022
Orbit: 1478 x 1509 km, 82.5° (Epoch: 07 August)

Event Time Altitude Azimuth Distance (km) Brightness Sun altitude
Rises 08:39:03 0° 355° (N) 4,646 ? -15.7°
Reaches altitude 10° 08:42:17 10° 4° (N) 3,658 ? -15.3°
Maximum altitude 08:50:22 39° 71° (ENE) 2,110 ? -14.4°
Drops below altitude 10° 08:58:20 10° 137° (SE) 3,620 ? -13.5°
Sets 09:01:29 0° 145° (SE) 4,593 ? -13.1°
